| time (UTC) | temp C | wind direction | speed KPH | gust KPH | rain 1hr cm | rain 24hr cm | rain mn cm | humidity % | barometer mb |
| 20260503054552 | 10 | 200 | 0.0 | 1.6 | 0.00 | 0.00 | 0.00 | 70 | 1013.2 |
| 20260503053037 | 10 | 127 | 1.6 | 3.2 | 0.00 | 0.00 | 0.00 | 71 | 1013.1 |
| 20260503051546 | 11 | 105 | 1.6 | 3.2 | 0.00 | 0.00 | 0.00 | 70 | 1013.0 |
| 20260503050036 | 11 | 120 | 0.0 | 1.6 | 0.00 | 0.00 | 0.00 | 68 | 1013.0 |
| 20260503044536 | 12 | 24 | 1.6 | 3.2 | 0.00 | 0.00 | 0.00 | 67 | 1012.9 |
| 20260503043035 | 13 | 83 | 0.0 | 3.2 | 0.00 | 0.00 | 0.00 | 63 | 1012.6 |
| 20260503041534 | 13 | 196 | 0.0 | 3.2 | 0.00 | 0.00 | 0.00 | 61 | 1012.4 |
| 20260503040035 | 14 | 68 | 0.0 | 4.8 | 0.00 | 0.00 | 0.00 | 58 | 1012.3 |
| 20260503034533 | 15 | 208 | 0.0 | 6.4 | 0.00 | 0.00 | 0.00 | 52 | 1012.1 |
| 20260503033037 | 15 | 158 | 3.2 | 8.0 | 0.00 | 0.00 | 0.00 | 52 | 1011.8 |
| 20260503031536 | 16 | 132 | 0.0 | 3.2 | 0.00 | 0.00 | 0.00 | 54 | 1011.2 |
| 20260503030035 | 17 | 98 | 0.0 | 4.8 | 0.00 | 0.00 | 0.00 | 46 | 1010.9 |
| 20260503024540 | 18 | 156 | 0.0 | 1.6 | 0.00 | 0.00 | 0.00 | 44 | 1010.9 |
| 20260503023030 | 20 | 173 | 1.6 | 4.8 | 0.00 | 0.00 | 0.00 | 44 | 1010.9 |
| 20260503021533 | 21 | 59 | 3.2 | 6.4 | 0.00 | 0.00 | 0.00 | 38 | 1010.9 |
| 20260503020029 | 22 | 295 | 0.0 | 6.4 | 0.00 | 0.00 | 0.00 | 33 | 1011.0 |
| 20260503014528 | 22 | 93 | 0.0 | 9.7 | 0.00 | 0.00 | 0.00 | 32 | 1010.8 |
| 20260503013034 | 22 | 233 | 0.0 | 12.9 | 0.00 | 0.00 | 0.00 | 34 | 1010.8 |
| 20260503011527 | 21 | 91 | 8.0 | 16.1 | 0.00 | 0.00 | 0.00 | 32 | 1010.9 |
| 20260503010031 | 22 | 89 | 8.0 | 20.9 | 0.00 | 0.00 | 0.00 | 34 | 1010.9 |
| 20260503004526 | 22 | 78 | 11.3 | 20.9 | 0.00 | 0.00 | 0.00 | 32 | 1010.9 |
| 20260503003033 | 24 | 166 | 1.6 | 4.8 | 0.00 | 0.00 | 0.00 | 26 | 1010.8 |
| 20260503001524 | 24 | 257 | 0.0 | 4.8 | 0.00 | 0.00 | 0.00 | 25 | 1010.7 |
| 20260503000023 | 24 | 280 | 6.4 | 12.9 | 0.00 | 0.00 | 0.00 | 28 | 1010.6 |
| 20260502234528 | 24 | 274 | 3.2 | 8.0 | 0.00 | 0.00 | 0.00 | 26 | 1010.6 |
| 20260502233022 | 25 | 295 | 3.2 | 11.3 | 0.00 | 0.00 | 0.00 | 26 | 1010.6 |
| 20260502230018 | 26 | 335 | 6.4 | 11.3 | 0.00 | 0.00 | 0.00 | 25 | 1010.9 |
| 20260502224516 | 25 | 359 | 3.2 | 8.0 | 0.00 | 0.00 | 0.00 | 22 | 1011.0 |
| 20260502223013 | 26 | 290 | 4.8 | 9.7 | 0.00 | 0.00 | 0.00 | 22 | 1011.1 |
| 20260502221512 | 26 | 262 | 1.6 | 11.3 | 0.00 | 0.00 | 0.00 | 24 | 1011.3 |
| 20260502220015 | 26 | 288 | 4.8 | 9.7 | 0.00 | 0.00 | 0.00 | 22 | 1011.4 |
| 20260502214506 | 25 | 153 | 3.2 | 9.7 | 0.00 | 0.00 | 0.00 | 22 | 1011.6 |
| 20260502213005 | 26 | 269 | 4.8 | 8.0 | 0.00 | 0.00 | 0.00 | 23 | 1011.8 |
| 20260502211501 | 25 | 205 | 0.0 | 9.7 | 0.00 | 0.00 | 0.00 | 21 | 1012.1 |
| 20260502210059 | 25 | 319 | 3.2 | 8.0 | 0.00 | 0.00 | 0.00 | 22 | 1012.2 |
| 20260502204603 | 25 | 293 | 1.6 | 9.7 | 0.00 | 0.00 | 0.00 | 22 | 1012.3 |
| 20260502203118 | 24 | 274 | 1.6 | 9.7 | 0.00 | 0.00 | 0.00 | 25 | 1012.4 |
| 20260502201603 | 23 | 326 | 4.8 | 9.7 | 0.00 | 0.00 | 0.00 | 27 | 1012.6 |
| 20260502200056 | 23 | 291 | 3.2 | 9.7 | 0.00 | 0.00 | 0.00 | 32 | 1012.7 |
| 20260502194546 | 22 | 294 | 4.8 | 11.3 | 0.00 | 0.00 | 0.00 | 35 | 1012.9 |
| 20260502193056 | 22 | 345 | 4.8 | 9.7 | 0.00 | 0.00 | 0.00 | 36 | 1013.1 |
| 20260502191540 | 21 | 290 | 1.6 | 9.7 | 0.00 | 0.00 | 0.00 | 39 | 1013.3 |
| 20260502190043 | 21 | 302 | 3.2 | 11.3 | 0.00 | 0.00 | 0.00 | 42 | 1013.5 |
| 20260502184543 | 20 | 295 | 3.2 | 9.7 | 0.00 | 0.00 | 0.00 | 43 | 1013.6 |
| 20260502183031 | 20 | 295 | 3.2 | 8.0 | 0.00 | 0.00 | 0.00 | 46 | 1013.9 |
| 20260502181527 | 19 | 291 | 4.8 | 9.7 | 0.00 | 0.00 | 0.00 | 47 | 1014.1 |
| 20260502163008 | 13 | 41 | 1.6 | 6.4 | 0.00 | 0.00 | 0.00 | 58 | 1015.2 |
| 20260502161506 | 14 | 321 | 3.2 | 6.4 | 0.00 | 0.00 | 0.00 | 57 | 1015.4 |
| 20260502151612 | 10 | 340 | 0.0 | 4.8 | 0.00 | 0.00 | 0.00 | 70 | 1016.0 |
| 20260502123040 | 3 | 121 | 0.0 | 0.0 | 0.00 | 0.00 | 0.00 | 90 | 1016.0 |
| 20260502121537 | 3 | 122 | 0.0 | 0.0 | 0.00 | 0.00 | 0.00 | 90 | 1015.9 |
| 20260502114533 | 3 | 122 | 0.0 | 0.0 | 0.00 | 0.00 | 0.00 | 88 | 1016.0 |
| 20260502113037 | 4 | 122 | 0.0 | 0.0 | 0.00 | 0.00 | 0.00 | 88 | 1015.9 |
| 20260502111529 | 4 | 122 | 0.0 | 0.0 | 0.00 | 0.00 | 0.00 | 88 | 1016.0 |
| 20260502110027 | 4 | 122 | 0.0 | 0.0 | 0.00 | 0.00 | 0.00 | 87 | 1016.0 |
| 20260502104532 | 4 | 122 | 0.0 | 0.0 | 0.00 | 0.00 | 0.00 | 88 | 1016.0 |
| 20260502103025 | 4 | 122 | 0.0 | 0.0 | 0.00 | 0.00 | 0.00 | 87 | 1016.0 |
| 20260502101524 | 5 | 122 | 0.0 | 3.2 | 0.00 | 0.00 | 0.00 | 87 | 1015.9 |
| 20260502091519 | 5 | 115 | 0.0 | 1.6 | 0.00 | 0.00 | 0.00 | 85 | 1015.8 |
| 20260502071502 | 7 | 324 | 0.0 | 1.6 | 0.00 | 0.00 | 0.00 | 82 | 1015.7 |